Change the Weather History Date:

Sunday, November 24, 2013

  Actual Average (EGMC) Record (EGMC)
Temperature  
Mean Temperature 46 °F -  
Max Temperature 50 °F 49 °F 57 °F (2006)
Min Temperature 42 °F 40 °F 28 °F (1998)
Degree Days  
Heating Degree Days 19    
Moisture  
Dew Point 43 °F    
Average Humidity 85    
Maximum Humidity 93    
Minimum Humidity 76    
Precipitation  
Precipitation 0.00 in - - ()
Sea Level Pressure  
Sea Level Pressure 30.38 in    
Wind  
Wind Speed 15 mph ()    
Max Wind Speed 21 mph    
Max Gust Speed -    
Visibility 6.2 miles    
Events Rain    
Averages and records for this station are not official NWS values.
T = Trace of Precipitation, MM = Missing Value Source: Averaged Metar Reports

Daily Weather History Graph

Daily Weather History Graph

Search for Another Location

Airport or City:

Trip Planner

Search our weather history database for the weather conditions in past years. The results will help you decide how hot, cold, wet, or windy it might be!

Date:

Astronomy

Nov. 24, 2013 Rise Set
Actual Time 7:26 AM GMT 3:58 PM GMT
Civil Twilight 6:49 AM GMT 4:36 PM GMT
Nautical Twilight 6:08 AM GMT 5:17 PM GMT
Astronomical Twilight 5:28 AM GMT 5:56 PM GMT
Moon 10:30 PM GMT (11/24) 11:49 AM GMT (11/24)
Length of Visible Light 9h 46m
Length of Day
8h 31m
Waning Gibbous, 62% of the Moon is Illuminated
Nov 24
Waning Gibbous
Nov 25
Last Quarter
Dec 3
New
Dec 9
First Quarter
Dec 17
Full

Hourly Weather History & Observations

Time (GMT) Temp. Windchill Dew Point Humidity Pressure Visibility Wind Dir Wind Speed Gust Speed Precip Events Conditions
8:20 AM 44.6 °F 37.2 °F 42.8 °F 93% 30.33 in 6.2 mi North 17.3 mph - N/A   Mostly Cloudy
8:50 AM 44.6 °F 37.4 °F 42.8 °F 93% 30.33 in 6.2 mi North 16.1 mph - N/A   Mostly Cloudy
9:20 AM 46.4 °F 39.5 °F 44.6 °F 93% 30.36 in 6.2 mi North 17.3 mph - N/A   Mostly Cloudy
9:50 AM 46.4 °F 39.8 °F 44.6 °F 93% 30.36 in 6.2 mi North 16.1 mph - N/A   Mostly Cloudy
10:20 AM 48.2 °F - 44.6 °F 87% 30.36 in 6.2 mi North 18.4 mph - N/A   Mostly Cloudy
10:50 AM 48.2 °F - 44.6 °F 87% 30.36 in 6.2 mi North 18.4 mph - N/A   Mostly Cloudy
11:20 AM 48.2 °F - 44.6 °F 87% 30.36 in 6.2 mi North 18.4 mph - N/A   Partly Cloudy
11:50 AM 50.0 °F - 44.6 °F 82% 30.36 in 6.2 mi North 20.7 mph - N/A   Partly Cloudy
12:20 PM 50.0 °F - 44.6 °F 82% 30.36 in 6.2 mi North 17.3 mph - N/A   Scattered Clouds
12:50 PM 50.0 °F - 44.6 °F 82% 30.36 in 6.2 mi North 12.7 mph - N/A   Scattered Clouds
1:20 PM 50.0 °F - 44.6 °F 82% 30.36 in 6.2 mi North 19.6 mph - N/A   Scattered Clouds
1:50 PM 48.2 °F - 44.6 °F 87% 30.36 in 6.2 mi North 18.4 mph - N/A Rain Light Rain
2:20 PM 48.2 °F - 44.6 °F 87% 30.39 in 6.2 mi North 15.0 mph - N/A   Mostly Cloudy
2:50 PM 48.2 °F - 44.6 °F 87% 30.39 in 6.2 mi North 11.5 mph - N/A   Mostly Cloudy
3:20 PM 48.2 °F - 42.8 °F 82% 30.39 in 6.2 mi North 16.1 mph - N/A   Scattered Clouds
3:50 PM 46.4 °F 39.0 °F 41.0 °F 81% 30.39 in 6.2 mi North 19.6 mph - N/A   Scattered Clouds
4:20 PM 46.4 °F 39.8 °F 39.2 °F 76% 30.42 in 6.2 mi North 16.1 mph - N/A   Partly Cloudy
4:50 PM 44.6 °F 39.2 °F 37.4 °F 76% 30.42 in 6.2 mi North 10.4 mph - N/A   Partly Cloudy
5:20 PM 44.6 °F 36.9 °F 37.4 °F 76% 30.42 in 6.2 mi North 18.4 mph - N/A   Partly Cloudy
5:50 PM 44.6 °F 37.8 °F 39.2 °F 81% 30.45 in 6.2 mi North 15.0 mph - N/A   Partly Cloudy
6:20 PM 42.8 °F 35.4 °F 39.2 °F 87% 30.45 in 6.2 mi North 15.0 mph - N/A   Partly Cloudy
6:50 PM 42.8 °F 35.8 °F 39.2 °F 87% 30.48 in 6.2 mi North 13.8 mph - N/A   Partly Cloudy